"2016-06-12 00:00:00",1714971,9.46,161.6,1.732,0.183,25.78,111.2504,28.11,29.12,14.12,0,111.5,12.97,28.96,123.6
"2016-06-12 00:00:30",1714972,9.72,158.3,4.224,0.318,25.81,111.2465,28.1,29.13,14.24,0,111.5,12.97,28.95,120.3
"2016-06-12 00:01:00",1714973,8.82,158.3,3.442,0.39,25.73,111.2454,28.1,29.12,14.43,0,111.5,12.97,28.95,120.3
"2016-06-12 00:01:30",1714974,8.5,153.1,2.786,0.392,25.7,111.2437,28.09,29.11,15.34,0,111.5,12.98,28.94,115.1
"2016-06-12 00:02:00",1714975,8.19,153.8,3.171,0.343,25.73,111.244,28.09,29.12,15.13,0,111.5,12.98,28.94,115.8
"2016-06-12 00:02:30",1714976,8.57,158.4,2.84,0.461,25.8,111.2434,28.09,29.12,15.29,0,111.5,12.98,28.94,120.4
"2016-06-12 00:03:00",1714977,8.5,160.7,1.005,0.265,25.83,111.2428,28.09,29.11,14.08,0,111.5,12.98,28.94,122.7
"2016-06-12 00:03:30",1714978,8.72,161,0.804,0.282,25.8,111.2426,28.09,29.09,13.78,0,111.5,12.98,28.94,123.0
"2016-06-12 00:04:00",1714979,8.95,162.7,1.894,0.284,25.82,111.242,28.09,29.11,14.12,0,111.5,12.98,28.94,124.7
"2016-06-12 00:04:30",1714980,8.63,155.2,2.516,0.257,25.74,111.2423,28.09,29.1,14.45,0,111.5,12.98,28.94,117.2
"2016-06-12 00:05:00",1714981,8.1,160.2,2.673,0.328,25.85,111.2423,28.09,29.1,14.52,0,111.5,12.98,28.94,122.2
"2016-06-12 00:05:30",1714982,8.51,159,2.134,0.301,25.83,111.2431,28.09,29.09,14.62,0,111.5,12.98,28.94,121.0
"2016-06-12 00:06:00",1714983,8.46,155.9,1.263,0.228,25.88,111.2431,28.09,29.11,14.52,0,111.4,12.98,28.94,117.9
"2016-06-12 00:06:30",1714984,8.21,156,2.939,0.309,25.94,111.242,28.09,29.1,14.52,0,111.5,12.98,28.94,118.0
"2016-06-12 00:07:00",1714985,8.3,156.2,2.375,0.257,25.88,111.242,28.09,29.1,14.92,0,111.4,12.98,28.94,118.2
"2016-06-12 00:07:30",1714986,8.5,157.9,1.715,0.267,25.95,111.242,28.09,29.1,14.33,0,111.4,12.98,28.94,119.9
"2016-06-12 00:08:00",1714987,8.48,158.2,1.577,0.222,26,111.242,28.09,29.1,14.38,0,111.5,12.98,28.94,120.2
"2016-06-12 00:08:30",1714988,8.26,159.9,1.832,0.317,25.96,111.242,28.09,29.11,14.72,0,111.4,12.98,28.94,121.9
"2016-06-12 00:09:00",1714989,7.817,161.8,3.392,0.211,25.95,111.2414,28.09,29.08,15.04,0,111.4,12.98,28.94,123.8
"2016-06-12 00:09:30",1714990,8.54,159.5,2.815,0.347,25.91,111.2415,28.09,29.1,14.69,0,111.4,12.98,28.94,121.5
"2016-06-12 00:10:00",1714991,8.52,163.4,3.003,0.346,25.95,111.2395,28.08,29.09,14.54,0,111.4,12.98,28.93,125.4
"2016-06-12 00:10:30",1714992,8.01,169.6,2.735,0.361,25.99,111.2339,28.07,29.09,14.31,0,111.5,12.98,28.92,131.6
"2016-06-12 00:11:00",1714993,7.811,161,3.973,0.669,25.82,111.233,28.06,29.08,14.49,0,111.4,12.98,28.91,123.0
"2016-06-12 00:11:30",1714994,7.043,160.8,2.819,0.503,25.79,111.2317,28.06,29.07,15.2,0,111.4,12.98,28.91,122.8
"2016-06-12 00:12:00",1714995,8.02,162.8,3.035,0.391,25.87,111.2297,28.06,29.06,15.23,0,111.4,12.98,28.91,124.8
"2016-06-12 00:12:30",1714996,8.16,154.8,3.641,0.316,25.8,111.2347,28.07,29.08,15.39,0,111.4,12.98,28.92,116.8
"2016-06-12 00:13:00",1714997,7.672,153.1,3.703,0.435,25.69,111.237,28.07,29.07,15.14,0,111.4,12.98,28.92,115.1
"2016-06-12 00:13:30",1714998,8.37,156.5,1.801,0.295,25.75,111.2398,28.08,29.06,14.51,0,111.4,12.97,28.93,118.5
"2016-06-12 00:14:00",1714999,8.03,158.8,1.976,0.294,25.79,111.2412,28.09,29.08,14.36,0,111.4,12.97,28.94,120.8
"2016-06-12 00:14:30",1715000,8.78,158.1,1.412,0.177,25.8,111.24,28.08,29.07,14.92,0,111.4,12.97,28.93,120.1
"2016-06-12 00:15:00",1715001,8.48,157.1,0.971,0.235,25.74,111.2423,28.09,29.07,15.28,0,111.4,12.97,28.94,119.1
"2016-06-12 00:15:30",1715002,8.59,158.8,4.881,0.269,25.88,111.2417,28.09,29.08,15.33,0,111.4,12.98,28.94,120.8
"2016-06-12 00:16:00",1715003,8.96,161.9,2.591,0.182,26.04,111.242,28.09,29.09,15.45,0,111.4,12.97,28.94,123.9
"2016-06-12 00:16:30",1715004,8.45,159.4,1.49,0.232,26,111.2417,28.09,29.1,15.43,0,111.4,12.97,28.94,121.4
"2016-06-12 00:17:00",1715005,8.22,160.7,1.92,0.285,26.03,111.2393,28.08,29.08,15.49,0,111.4,12.97,28.93,122.7
"2016-06-12 00:17:30",1715006,7.915,161.2,1.536,0.196,26.03,111.2316,28.06,29.07,15.42,0,111.4,12.97,28.91,123.2
"2016-06-12 00:18:00",1715007,7.705,159.7,3.132,0.249,25.96,111.2206,28.03,29.07,15.28,0,111.4,12.97,28.88,121.7
"2016-06-12 00:18:30",1715008,7.202,152.4,2.485,0.261,25.79,111.2193,28.03,29.07,15.38,0,111.4,12.98,28.88,114.4
"2016-06-12 00:19:00",1715009,7.053,154.5,2.57,0.214,25.85,111.2199,28.03,29.07,15.55,0,111.4,12.98,28.88,116.5
"2016-06-12 00:19:30",1715010,7.078,152.4,2.154,0.28,25.74,111.2194,28.03,29.07,15.7,0,111.4,12.98,28.88,114.4
"2016-06-12 00:20:00",1715011,7.291,152.5,2.245,0.424,25.76,111.2212,28.03,29.07,15.81,0,111.4,12.98,28.88,114.5
"2016-06-12 00:20:30",1715012,7.293,157.6,1.795,0.232,25.84,111.2174,28.02,29.06,16,0,111.4,12.98,28.87,119.6
"2016-06-12 00:21:00",1715013,7.208,156.3,2.47,0.159,25.79,111.2184,28.03,29.06,16.35,0,111.4,12.98,28.88,118.3
"2016-06-12 00:21:30",1715014,7.051,155.8,3.159,0.321,25.76,111.2195,28.03,29.07,16.56,0,111.4,12.98,28.88,117.8
"2016-06-12 00:22:00",1715015,7.807,163.2,3.413,0.212,25.84,111.2205,28.03,29.06,16.13,0,111.4,12.98,28.88,125.2
"2016-06-12 00:22:30",1715016,7.48,167.2,1.07,0.227,25.91,111.2217,28.04,29.05,16.18,0,111.4,12.98,28.88,129.2
"2016-06-12 00:23:00",1715017,7.373,166.7,1.714,0.156,25.87,111.221,28.03,29.05,16.3,0,111.4,12.98,28.88,128.7
"2016-06-12 00:23:30",1715018,7.175,165.4,1.552,0.137,25.93,111.221,28.03,29.07,16.52,0,111.4,12.98,28.88,127.4
"2016-06-12 00:24:00",1715019,7.193,167.7,2.115,0.344,25.99,111.2234,28.04,29.05,16.69,0,111.4,12.98,28.89,129.7
"2016-06-12 00:24:30",1715020,6.747,160.2,2.45,0.182,25.95,111.2217,28.04,29.07,17.31,0,111.4,12.98,28.88,122.2
"2016-06-12 00:25:00",1715021,6.23,149.4,7.241,0.309,25.92,111.2221,28.04,29.07,17.39,0,111.4,12.98,28.89,111.4
"2016-06-12 00:25:30",1715022,5.936,151.6,6.057,0.462,26.09,111.2233,28.04,29.06,17.82,0,111.4,12.98,28.89,113.6
"2016-06-12 00:26:00",1715023,5.425,155.6,6.561,0.433,26.13,111.2233,28.04,29.06,17.8,0,111.4,12.98,28.89,117.6
"2016-06-12 00:26:30",1715024,6.83,171.8,1.989,0.374,26.33,111.2282,28.05,29.07,17.2,0,111.4,12.98,28.90,133.8
"2016-06-12 00:27:00",1715025,6.158,175.9,3.629,0.309,26.37,111.2292,28.05,29.05,16.96,0,111.4,12.98,28.90,137.9
"2016-06-12 00:27:30",1715026,5.656,177.9,4.906,0.202,26.37,111.2321,28.06,29.04,16.85,0,111.4,12.98,28.91,139.9
"2016-06-12 00:28:00",1715027,5.685,176.9,4.164,0.315,26.41,111.2339,28.07,29.04,17.13,0,111.4,12.98,28.92,138.9
"2016-06-12 00:28:30",1715028,5.667,179.8,5.37,0.347,26.45,111.2268,28.05,29.04,17.48,0,111.4,12.98,28.90,141.8
"2016-06-12 00:29:00",1715029,5.415,173.5,4.725,0.644,26.43,111.2092,28,29.03,17.53,0,111.4,12.98,28.85,135.5
"2016-06-12 00:29:30",1715030,5.425,176.6,4.991,0.464,26.5,111.1918,27.96,28.99,17.62,0,111.4,12.98,28.81,138.6
"2016-06-12 00:30:00",1715031,5.532,174.8,1.661,0.32,26.49,111.1696,27.9,28.94,17.16,0,111.4,12.98,28.75,136.8
"2016-06-12 00:30:30",1715032,5.271,176.9,3.918,0.33,26.4,111.164,27.89,28.9,17.67,0,111.4,12.98,28.74,138.9
"2016-06-12 00:31:00",1715033,4.05,191,5.505,0.641,26.27,111.1408,27.83,28.89,18.2,0,111.4,12.98,28.68,153.0
"2016-06-12 00:31:30",1715034,3.246,200.3,9.23,0.35,26.13,111.131,27.8,28.84,18.48,0,111.4,12.98,28.65,162.3
"2016-06-12 00:32:00",1715035,4.114,195.6,7.093,0.419,26.01,111.1081,27.74,28.79,18.59,0,111.4,12.98,28.59,157.6
"2016-06-12 00:32:30",1715036,3.726,192.8,4.07,0.416,25.96,111.1018,27.73,28.74,17.8,0,111.4,12.98,28.58,154.8
"2016-06-12 00:33:00",1715037,4.368,199.6,3.926,0.323,25.89,111.0866,27.69,28.72,16.8,0,111.4,12.98,28.54,161.6
"2016-06-12 00:33:30",1715038,4.109,198.6,9.15,0.595,25.82,111.0703,27.65,28.68,17.12,0,111.4,12.98,28.49,160.6
"2016-06-12 00:34:00",1715039,4.01,206.6,17.33,0.801,25.57,111.0609,27.62,28.64,18.71,0,111.4,12.98,28.47,168.6
"2016-06-12 00:34:30",1715040,5.522,277,23.98,1.828,24.38,111.0235,27.53,28.58,21.8,0,111.4,12.97,28.37,239.0
"2016-06-12 00:35:00",1715041,9.09,314.4,6.324,1.312,23.93,111.0115,27.49,28.53,23.16,0,111.4,12.98,28.34,276.4
"2016-06-12 00:35:30",1715042,9.62,329.9,8.36,0.714,24.29,111.0039,27.47,28.52,23.57,0,111.4,12.98,28.32,291.9
"2016-06-12 00:36:00",1715043,8.41,346.1,3.028,1.284,24.41,111.0007,27.47,28.51,23.45,0,111.4,12.98,28.31,308.1
"2016-06-12 00:36:30",1715044,9.49,335.4,4.654,0.578,24.33,110.9898,27.44,28.48,22.35,0,111.4,12.98,28.29,297.4
"2016-06-12 00:37:00",1715045,9.81,331.8,3.035,0.374,24.58,110.9711,27.39,28.46,21.88,0,111.4,12.98,28.24,293.8
"2016-06-12 00:37:30",1715046,9.38,327.2,5.279,0.631,24.48,110.9676,27.38,28.43,21.91,0,111.4,12.98,28.23,289.2
"2016-06-12 00:38:00",1715047,9.71,327.1,3.173,0.497,24.62,110.9421,27.32,28.41,22.55,0,111.4,12.98,28.16,289.1
"2016-06-12 00:38:30",1715048,10.47,332.4,3.344,0.505,24.9,110.9256,27.27,28.37,21.9,0,111.4,12.98,28.12,294.4
"2016-06-12 00:39:00",1715049,10.46,334.1,2.395,0.517,24.86,110.9023,27.21,28.33,21.37,0,111.4,12.98,28.06,296.1
"2016-06-12 00:39:30",1715050,11.39,337.6,2.137,0.436,24.72,110.8762,27.15,28.27,21.82,0,111.4,12.98,27.99,299.6
"2016-06-12 00:40:00",1715051,10.27,335.3,5.27,0.64,24.67,110.8448,27.07,28.22,22.27,0,111.4,12.98,27.91,297.3
"2016-06-12 00:40:30",1715052,9.83,338.3,3.555,0.563,24.69,110.8092,26.97,28.15,22.5,0,111.4,12.99,27.82,300.3
"2016-06-12 00:41:00",1715053,10.5,342.4,3.374,1.224,24.9,110.7696,26.87,28.08,22.54,0,111.4,12.99,27.72,304.4
"2016-06-12 00:41:30",1715054,11.88,336,3.661,0.411,24.85,110.7295,26.77,28,22.13,0,111.4,12.99,27.61,298.0
"2016-06-12 00:42:00",1715055,11.42,339.5,2.341,0.387,24.91,110.693,26.68,27.92,22.19,0,111.4,12.99,27.52,301.5
"2016-06-12 00:42:30",1715056,10.99,339.4,2.293,0.487,25.17,110.6563,26.58,27.84,21.66,0,111.4,12.99,27.43,301.4
"2016-06-12 00:43:00",1715057,9.57,343.8,6.113,1.084,24.86,110.6218,26.49,27.75,22.34,0,111.4,12.99,27.34,305.8
"2016-06-12 00:43:30",1715058,7.764,348.6,5.825,1.196,24.63,110.5833,26.39,27.67,24.09,0,111.4,12.99,27.24,310.6
"2016-06-12 00:44:00",1715059,11.32,338.7,2.59,0.318,24.71,110.5494,26.31,27.59,22.73,0,111.4,12.99,27.15,300.7
"2016-06-12 00:44:30",1715060,10.78,341.2,1.813,0.456,24.67,110.516,26.22,27.5,22.67,0,111.4,12.99,27.06,303.2
"2016-06-12 00:45:00",1715061,11.41,339.9,2.353,0.478,24.76,110.4865,26.14,27.42,23.2,0,111.4,12.99,26.99,301.9
"2016-06-12 00:45:30",1715062,10,339.9,3.921,0.849,24.48,110.4529,26.06,27.33,23.06,0,111.4,12.99,26.90,301.9
"2016-06-12 00:46:00",1715063,8.81,337.3,4.654,0.6,24.17,110.4237,25.98,27.27,24.36,0,111.4,12.99,26.83,299.3
"2016-06-12 00:46:30",1715064,10.6,338,4.661,0.545,24.45,110.3967,25.91,27.21,24.18,0,111.4,12.99,26.76,300.0
"2016-06-12 00:47:00",1715065,9.45,334,3.143,0.387,24.26,110.3716,25.85,27.14,24.68,0,111.4,12.99,26.69,296.0
"2016-06-12 00:47:30",1715066,9.16,336.3,4.866,0.474,24.32,110.3461,25.78,27.06,24.89,0,111.4,12.99,26.63,298.3
"2016-06-12 00:48:00",1715067,7.635,337.7,7.502,1.207,24.44,110.3149,25.7,26.98,25.38,0,111.4,12.99,26.55,299.7
"2016-06-12 00:48:30",1715068,8.39,345.2,6.222,1.165,25.49,110.2774,25.61,26.89,23.59,0,111.4,12.99,26.45,307.2
"2016-06-12 00:49:00",1715069,8.65,348.5,1.734,0.523,25.02,110.2691,25.59,26.83,22.99,0,111.4,12.99,26.43,310.5
"2016-06-12 00:49:30",1715070,8.31,347,2.227,0.919,24.31,110.2594,25.56,26.78,23.74,0,111.4,12.99,26.40,309.0
"2016-06-12 00:50:00",1715071,7.105,334.7,5.437,0.45,24.39,110.2485,25.53,26.73,24.24,0,111.4,12.99,26.37,296.7
"2016-06-12 00:50:30",1715072,6.926,330.7,6.441,0.701,24.49,110.2288,25.48,26.68,23.88,0,111.4,12.99,26.32,292.7
"2016-06-12 00:51:00",1715073,4.783,318.6,4.801,0.514,23.86,110.2185,25.46,26.63,24.65,0,111.4,12.99,26.30,280.6
"2016-06-12 00:51:30",1715074,5.399,331.7,4.401,0.901,23.81,110.1976,25.4,26.59,25.49,0,111.4,12.99,26.24,293.7
"2016-06-12 00:52:00",1715075,8.75,337.2,2.315,0.99,24.06,110.1951,25.4,26.55,25.24,0,111.4,12.99,26.24,299.2
"2016-06-12 00:52:30",1715076,8.37,331.5,4.596,0.6,24.08,110.1713,25.33,26.5,24.96,0,111.4,12.99,26.18,293.5
"2016-06-12 00:53:00",1715077,6.72,341.5,6.833,1.298,24.8,110.1631,25.31,26.47,24.25,0,111.4,12.99,26.15,303.5
"2016-06-12 00:53:30",1715078,3.652,350.6,12.94,0.628,25.08,110.1546,25.29,26.43,23.8,0,111.4,12.99,26.13,312.6
"2016-06-12 00:54:00",1715079,4.992,334.1,5.97,0.793,24.81,110.1401,25.25,26.39,23.84,0,111.4,12.99,26.09,296.1
"2016-06-12 00:54:30",1715080,5.832,341.3,5.758,0.694,24.63,110.1391,25.25,26.36,23.89,0,111.4,12.99,26.09,303.3
"2016-06-12 00:55:00",1715081,5.498,360,9.6,0.669,24.97,110.142,25.26,26.35,24.01,0,111.4,13,26.10,322.0
"2016-06-12 00:55:30",1715082,3.968,7.1,8.46,0.367,25.29,110.1504,25.28,26.33,23.86,0,111.4,13,26.12,329.1
"2016-06-12 00:56:00",1715083,3.34,0.404,14.62,0.852,24.76,110.1676,25.33,26.33,23.88,0,111.4,13,26.17,322.4
"2016-06-12 00:56:30",1715084,2.163,7.844,8.76,0.842,25.3,110.1712,25.33,26.34,23.81,0,111.4,13,26.17,329.8
"2016-06-12 00:57:00",1715085,4.367,6.187,15.8,0.982,24.85,110.174,25.34,26.32,23.51,0,111.3,13,26.18,328.2
"2016-06-12 00:57:30",1715086,6.179,351.5,7.154,1.373,25.13,110.1922,25.39,26.35,23.69,0,111.4,13,26.23,313.5
"2016-06-12 00:58:00",1715087,4.186,358.9,15.49,1.783,24.55,110.2055,25.42,26.36,23.98,0,111.4,13,26.26,320.9
"2016-06-12 00:58:30",1715088,3.435,356.9,20.66,0.963,25.03,110.2102,25.43,26.37,23.45,0,111.4,13,26.28,318.9
"2016-06-12 00:59:00",1715089,2.501,354.1,15.75,1.051,24.69,110.2338,25.5,26.4,23.57,0,111.4,13,26.34,316.1
"2016-06-12 00:59:30",1715090,3.307,354.5,8.68,1.223,25.81,110.2391,25.51,26.41,23,0,111.4,13,26.35,316.5
"2016-06-12 01:00:00",1715091,2.554,355.7,14.13,1.271,25.32,110.2622,25.57,26.44,23.09,0,111.4,13,26.41,317.7
"2016-06-12 01:00:30",1715092,3.276,9.55,11.44,1.385,25.18,110.2765,25.6,26.47,23.19,0,111.4,13,26.45,331.5
"2016-06-12 01:01:00",1715093,3.526,1.144,9.93,1.616,24.68,110.3003,25.67,26.5,23.56,0,111.4,12.99,26.51,323.1
"2016-06-12 01:01:30",1715094,3.198,3.903,11.43,1.528,25.19,110.3124,25.7,26.54,23.13,0,111.4,12.99,26.54,325.9
"2016-06-12 01:02:00",1715095,3.582,6.006,19.16,1.153,25.23,110.3399,25.77,26.57,22.87,0,111.4,13,26.61,328.0
"2016-06-12 01:02:30",1715096,2.684,324,15.53,1.016,25.12,110.3503,25.79,26.63,22.65,0,111.4,13,26.64,286.0
"2016-06-12 01:03:00",1715097,4.133,343.4,14.71,1.461,24.8,110.3725,25.85,26.65,22.63,0,111.4,12.99,26.69,305.4
"2016-06-12 01:03:30",1715098,7.935,340.6,5.163,0.789,24.36,110.389,25.89,26.7,22.42,0,111.4,12.99,26.74,302.6
"2016-06-12 01:04:00",1715099,7.984,335.2,8.45,0.702,24.17,110.4066,25.94,26.75,22.45,0,111.4,12.99,26.78,297.2
"2016-06-12 01:04:30",1715100,9.36,325.9,3.054,0.745,24,110.4133,25.96,26.79,22.33,0,111.4,12.99,26.80,287.9
"2016-06-12 01:05:00",1715101,10.17,327,1.51,0.355,23.79,110.4296,26,26.82,22.48,0,111.4,12.99,26.84,289.0
"2016-06-12 01:05:30",1715102,9.7,326.3,2.047,0.403,23.74,110.4336,26.01,26.86,22.84,0,111.4,12.99,26.85,288.3
"2016-06-12 01:06:00",1715103,9.51,325.4,1.893,0.434,23.79,110.4173,25.97,26.87,23.36,0,111.4,12.99,26.81,287.4
"2016-06-12 01:06:30",1715104,8.4,326.7,2.818,0.396,23.85,110.4078,25.94,26.87,24.23,0,111.4,12.99,26.78,288.7
"2016-06-12 01:07:00",1715105,7.899,326.9,5.676,0.64,23.89,110.4039,25.93,26.88,24.46,0,111.4,12.98,26.77,288.9
"2016-06-12 01:07:30",1715106,7.029,323,6.161,0.628,23.96,110.3761,25.86,26.86,25.15,0,111.4,12.99,26.70,285.0
"2016-06-12 01:08:00",1715107,8.19,340.5,2.505,0.45,24.5,110.3739,25.86,26.85,23.77,0,111.4,12.99,26.70,302.5
"2016-06-12 01:08:30",1715108,7.928,335.3,7.474,0.425,24.37,110.3534,25.8,26.83,23.4,0,111.4,12.99,26.64,297.3
"2016-06-12 01:09:00",1715109,8.42,331.2,2.41,0.553,24.15,110.3402,25.77,26.79,23.69,0,111.4,12.99,26.61,293.2
"2016-06-12 01:09:30",1715110,8.11,332.1,3.125,0.302,24.15,110.3348,25.76,26.78,23.88,0,111.4,12.99,26.60,294.1
"2016-06-12 01:10:00",1715111,6.893,343.2,6.439,0.428,24.03,110.3124,25.7,26.74,24.54,0,111.4,12.99,26.54,305.2
"2016-06-12 01:10:30",1715112,7.398,345.3,5.407,0.635,24.32,110.3048,25.68,26.71,24.45,0,111.4,12.99,26.52,307.3
"2016-06-12 01:11:00",1715113,7.279,345.7,6.302,0.781,24.63,110.2782,25.61,26.68,23.79,0,111.4,12.99,26.45,307.7
"2016-06-12 01:11:30",1715114,7.593,341.3,7.273,0.75,24.19,110.2728,25.6,26.65,24.46,0,111.4,12.99,26.44,303.3
"2016-06-12 01:12:00",1715115,7.43,353,4.417,1.423,24.94,110.2624,25.57,26.62,23.67,0,111.4,12.99,26.41,315.0
"2016-06-12 01:12:30",1715116,4.112,8.98,13.59,1.664,25.43,110.2397,25.51,26.59,23.05,0,111.4,13,26.35,331.0
"2016-06-12 01:13:00",1715117,5.142,359.4,11.59,1.819,24.73,110.2391,25.51,26.56,23.25,0,111.4,13,26.35,321.4
"2016-06-12 01:13:30",1715118,2.858,18.67,12.41,1.573,25.15,110.2391,25.51,26.56,23.05,0,111.4,13,26.35,340.7
"2016-06-12 01:14:00",1715119,3.005,346.3,10.77,0.438,25.58,110.2377,25.51,26.53,22.88,0,111.4,13,26.35,308.3
"2016-06-12 01:14:30",1715120,4.132,353.4,10.06,0.829,25.21,110.2386,25.51,26.51,22.87,0,111.4,13,26.35,315.4
"2016-06-12 01:15:00",1715121,4.133,2.621,14.85,1.406,24.76,110.2391,25.51,26.49,23.07,0,111.4,12.99,26.35,324.6
"2016-06-12 01:15:30",1715122,5.906,353.6,7.16,1.282,24.47,110.2391,25.51,26.5,23.24,0,111.4,13,26.35,315.6
"2016-06-12 01:16:00",1715123,5.529,355.8,3.569,0.871,24.56,110.2391,25.51,26.5,23.4,0,111.4,13,26.35,317.8
"2016-06-12 01:16:30",1715124,6.082,354.8,4.672,1.164,24.9,110.2391,25.51,26.51,23.16,0,111.4,13,26.35,316.8
"2016-06-12 01:17:00",1715125,5.617,357.1,4.218,1.011,24.52,110.2391,25.51,26.51,23.3,0,111.4,13,26.35,319.1
"2016-06-12 01:17:30",1715126,4.98,358.5,2.859,0.938,24.39,110.2391,25.51,26.5,23.72,0,111.4,13,26.35,320.5
"2016-06-12 01:18:00",1715127,4.766,1.864,4.713,0.994,24.71,110.2391,25.51,26.5,23.51,0,111.4,13,26.35,323.9
"2016-06-12 01:18:30",1715128,5.631,356.6,2.857,1.261,24.59,110.238,25.51,26.51,23.89,0,111.4,13,26.35,318.6
"2016-06-12 01:19:00",1715129,4.544,358,2.802,0.619,24.88,110.2144,25.45,26.5,23.68,0,111.4,13,26.29,320.0
"2016-06-12 01:19:30",1715130,3.65,3.663,3.124,0.463,24.83,110.2055,25.42,26.48,23.9,0,111.4,13,26.26,325.7
"2016-06-12 01:20:00",1715131,4.13,1.987,4.271,1.087,24.44,110.2032,25.42,26.47,24.26,0,111.4,13,26.26,324.0
"2016-06-12 01:20:30",1715132,5.008,358.2,1.773,0.47,24.38,110.1757,25.35,26.44,24.5,0,111.4,13,26.19,320.2
"2016-06-12 01:21:00",1715133,5.081,358.4,2.64,1.214,24.32,110.16,25.31,26.4,24.76,0,111.4,13,26.15,320.4
"2016-06-12 01:21:30",1715134,5.601,357.3,3.313,1.086,24.2,110.1322,25.23,26.38,25.4,0,111.4,13,26.07,319.3
"2016-06-12 01:22:00",1715135,6.082,356,2.338,1.02,24.38,110.105,25.16,26.35,25.06,0,111.4,13,26.00,318.0
"2016-06-12 01:22:30",1715136,7.631,351.5,1.565,0.545,24.62,110.0744,25.09,26.28,24.87,0,111.3,13,25.93,313.5
"2016-06-12 01:23:00",1715137,7.33,352.2,2.703,0.811,24.45,110.0556,25.04,26.23,25.13,0,111.4,12.99,25.88,314.2
"2016-06-12 01:23:30",1715138,7.331,347.8,2.178,0.224,24.36,110.0352,24.99,26.19,25.46,0,111.3,12.99,25.82,309.8
"2016-06-12 01:24:00",1715139,7.364,345.4,2.884,0.133,24.36,110.0094,24.92,26.13,25.68,0,111.3,12.99,25.76,307.4
"2016-06-12 01:24:30",1715140,7.312,342.7,1.911,0.237,24.32,110.0012,24.9,26.08,26.02,0,111.3,12.99,25.74,304.7
"2016-06-12 01:25:00",1715141,7.014,338.4,1.726,0.17,24.31,109.9848,24.86,26.03,26.14,0,111.3,12.99,25.69,300.4
"2016-06-12 01:25:30",1715142,7.053,340.2,1.329,0.269,24.59,109.9675,24.81,25.98,25.83,0,111.3,12.99,25.65,302.2
"2016-06-12 01:26:00",1715143,7.261,339,0.613,0.248,24.46,109.9611,24.79,25.93,25.84,0,111.3,12.99,25.63,301.0
"2016-06-12 01:26:30",1715144,7.707,334.2,1.613,0.31,24.53,109.9343,24.73,25.88,25.91,0,111.3,13,25.56,296.2
"2016-06-12 01:27:00",1715145,7.211,337,0.929,0.21,24.4,109.9256,24.7,25.83,26.17,0,111.3,13,25.54,299.0
"2016-06-12 01:27:30",1715146,7.708,334.5,2.026,0.193,24.46,109.9003,24.64,25.79,26.14,0,111.3,13,25.48,296.5
"2016-06-12 01:28:00",1715147,7.739,336.9,2.587,0.36,24.39,109.8895,24.61,25.75,26.37,0,111.3,13,25.45,298.9
"2016-06-12 01:28:30",1715148,7.635,340.3,2.565,0.28,24.88,109.871,24.56,25.7,26.27,0,111.3,13.01,25.40,302.3
"2016-06-12 01:29:00",1715149,7.167,340.2,2.175,0.497,24.97,109.8624,24.54,25.65,25.75,0,111.3,13.01,25.38,302.2
"2016-06-12 01:29:30",1715150,7.031,341.9,4.419,0.465,25.11,109.8402,24.48,25.63,25.61,0,111.3,13.01,25.32,303.9
"2016-06-12 01:30:00",1715151,7.227,340.1,4.524,0.523,25.23,109.8343,24.47,25.57,25.59,0,111.3,13.01,25.31,302.1
"2016-06-12 01:30:30",1715152,7.955,339,2.054,0.443,24.85,109.8093,24.4,25.55,25.7,0,111.3,13.01,25.24,301.0
"2016-06-12 01:31:00",1715153,8.54,339.4,2.048,0.746,24.73,109.804,24.39,25.5,25.81,0,111.3,13.01,25.23,301.4
"2016-06-12 01:31:30",1715154,8.71,341.3,3.611,0.358,24.62,109.7838,24.34,25.49,26.05,0,111.3,13.01,25.18,303.3
"2016-06-12 01:32:00",1715155,7.726,340.1,5.196,0.477,25.31,109.7709,24.31,25.44,25.57,0,111.3,13.01,25.14,302.1
"2016-06-12 01:32:30",1715156,9.85,337.6,1.512,0.341,24.6,109.7709,24.31,25.42,25.8,0,111.3,13.01,25.14,299.6
"2016-06-12 01:33:00",1715157,9.62,342.2,2.715,0.455,24.49,109.749,24.25,25.38,26.34,0,111.3,13.01,25.09,304.2
"2016-06-12 01:33:30",1715158,9.86,341.5,1.618,0.537,24.82,109.7372,24.22,25.36,26.3,0,111.3,13.01,25.06,303.5
"2016-06-12 01:34:00",1715159,9.73,341.9,0.856,0.394,24.45,109.7313,24.2,25.33,26.55,0,111.3,13.01,25.04,303.9
"2016-06-12 01:34:30",1715160,10.14,340.4,1.212,0.165,25.16,109.708,24.14,25.31,25.95,0,111.3,13.01,24.98,302.4
"2016-06-12 01:35:00",1715161,9.87,337.7,1.779,0.249,24.63,109.7038,24.13,25.27,26.05,0,111.3,13.02,24.97,299.7
"2016-06-12 01:35:30",1715162,9.63,335.8,0.544,0.111,24.85,109.6991,24.12,25.24,26.27,0,111.2,13.02,24.96,297.8
"2016-06-12 01:36:00",1715163,9.37,334.8,1.414,0.146,24.97,109.681,24.07,25.21,25.93,0,111.2,13.02,24.91,296.8
"2016-06-12 01:36:30",1715164,8.97,334.3,1.171,0.278,24.35,109.6904,24.1,25.19,26.48,0,111.2,13.02,24.94,296.3
"2016-06-12 01:37:00",1715165,8.8,334.6,0.905,0.185,24.35,109.6916,24.1,25.17,26.97,0,111.2,13.02,24.94,296.6
"2016-06-12 01:37:30",1715166,9.56,336.2,1.591,0.293,24.72,109.6745,24.06,25.14,26.74,0,111.2,13.02,24.89,298.2
"2016-06-12 01:38:00",1715167,9.59,336.6,0.685,0.246,24.71,109.6644,24.03,25.11,26.51,0,111.2,13.02,24.87,298.6
"2016-06-12 01:38:30",1715168,9.43,336.1,0.844,0.101,24.6,109.6663,24.04,25.09,26.79,0,111.2,13.02,24.87,298.1
"2016-06-12 01:39:00",1715169,9.3,336,0.748,0.135,24.56,109.6598,24.02,25.07,26.93,0,111.2,13.02,24.86,298.0
"2016-06-12 01:39:30",1715170,9.31,333,0.932,0.111,24.75,109.6466,23.99,25.04,26.8,0,111.2,13.02,24.82,295.0
"2016-06-12 01:40:00",1715171,9.26,332.5,0.939,0.121,24.66,109.6394,23.97,25.04,26.71,0,111.2,13.02,24.80,294.5
"2016-06-12 01:40:30",1715172,8.87,332.7,1.134,0.139,24.59,109.6394,23.97,25.02,26.9,0,111.2,13.01,24.80,294.7
"2016-06-12 01:41:00",1715173,8.8,331.4,0.776,0.074,24.59,109.6346,23.96,24.98,26.79,0,111.2,13.01,24.79,293.4
"2016-06-12 01:41:30",1715174,8.58,333.6,2.074,0.188,24.64,109.6155,23.91,24.98,26.77,0,111.2,13.01,24.74,295.6
"2016-06-12 01:42:00",1715175,8.57,333.7,1.049,0.146,24.64,109.6071,23.89,24.96,26.87,0,111.2,13.01,24.72,295.7
"2016-06-12 01:42:30",1715176,8.3,335.2,1.451,0.153,24.68,109.6057,23.88,24.94,27.06,0,111.2,13.01,24.72,297.2
"2016-06-12 01:43:00",1715177,7.938,335.3,1.082,0.149,24.63,109.6057,23.88,24.93,26.84,0,111.2,13.01,24.72,297.3
"2016-06-12 01:43:30",1715178,7.793,334,0.842,0.137,24.49,109.6012,23.87,24.92,27.34,0,111.2,13.01,24.71,296.0
"2016-06-12 01:44:00",1715179,8.04,333.4,0.619,0.317,24.74,109.5913,23.84,24.89,27.3,0,111.2,13.01,24.68,295.4
"2016-06-12 01:44:30",1715180,8.72,331.8,0.414,0.122,24.73,109.5731,23.8,24.89,27.1,0,111.2,13.01,24.63,293.8
"2016-06-12 01:45:00",1715181,8.68,333.3,1.144,0.268,24.72,109.572,23.79,24.87,26.99,0,111.2,13.01,24.63,295.3
"2016-06-12 01:45:30",1715182,8.11,332.1,1.634,0.239,24.54,109.572,23.79,24.87,27.23,0,111.2,13.02,24.63,294.1
"2016-06-12 01:46:00",1715183,7.907,332.6,0.884,0.264,24.49,109.5691,23.79,24.83,27.42,0,111.2,13.02,24.62,294.6
"2016-06-12 01:46:30",1715184,7.788,331.9,1.271,0.217,24.43,109.5509,23.74,24.84,27.58,0,111.2,13.03,24.58,293.9
"2016-06-12 01:47:00",1715185,7.807,331.8,1.126,0.285,24.37,109.5411,23.72,24.81,27.86,0,111.2,13.03,24.55,293.8
"2016-06-12 01:47:30",1715186,7.909,334,1.059,0.186,24.37,109.5441,23.72,24.8,28.06,0,111.2,13.03,24.56,296.0